Stations météo

Publicité
Beauvais, France (7055): Température de l'air & dewpoint: 18.01.2021 07:00:00 - 24.01.2021 07:00:00 (CET)Beauvais, France (7055): Température de l'air 5cm: 18.01.2021 07:00:00 - 24.01.2021 07:00:00 (CET)Beauvais, France (7055): Température de l'air -20cm & Température de l'air -100cm: 18.01.2021 07:00:00 - 24.01.2021 07:00:00 (CET)Beauvais, France (7055): Vitesse du vent & gusts: 18.01.2021 07:00:00 - 24.01.2021 07:00:00 (CET)Beauvais, France (7055): Direction du vent: 18.01.2021 07:00:00 - 24.01.2021 07:00:00 (CET)Beauvais, France (7055): reduced air pressure: 18.01.2021 07:00:00 - 24.01.2021 07:00:00 (CET)Beauvais, France (7055): visibility: 18.01.2021 07:00:00 - 24.01.2021 07:00:00 (CET)Beauvais, France (7055): Ensoleillement: 18.01.2021 07:00:00 - 24.01.2021 07:00:00 (CET)Beauvais, France (7055): Quantités de précipitations: 18.01.2021 07:00:00 - 24.01.2021 07:00:00 (CET)
Date & Time tt [°C] td [°C] tt 5cm [°C] tt -20cm [°C] tt -100cm [°C] ff [km/h] ff [knt] fx [km/h] fx [knt] dd ppp [hPa] vv [km] sd [min] rr [mm]
24.01.2021 07:00:00 -2,7 -3,7 -7,6 5,8 7,7 3 2 6 4 WSW 1002,3 33 0 0,0
24.01.2021 06:00:00 -2,0 -3,7 -6,8 5,8 7,7 5 3 14 8 WSW 1002,1 20 0 0,0
24.01.2021 05:00:00 -0,7 -2,0 -3,8 5,9 7,7 9 5 16 9 W 1001,8 35 0 0,0
24.01.2021 04:00:00 -0,9 -1,9 -6,3 5,9 7,7 10 5 16 8 WSW 1001,6 30 0 0,0
24.01.2021 03:00:00 -1,7 -2,8 -6,1 5,9 7,7 9 5 14 8 W 1001,1 28 0 0,0
24.01.2021 02:00:00 -0,5 -1,5 -3,6 6,0 7,7 11 6 15 8 W 1000,4 35 0 0,0
24.01.2021 01:00:00 -0,8 -1,8 -3,5 6,0 7,7 12 6 17 9 W 999,8 38 0 0,0
24.01.2021 00:00:00 -0,3 -1,3 -3,0 6,0 7,7 11 6 18 10 WNW 999,3 35 0 0,0
23.01.2021 23:00:00 -0,1 -1,4 -2,3 6,1 7,7 13 7 19 11 WNW 999,1 37 0 0,0
23.01.2021 22:00:00 0,4 -0,2 -2,3 6,1 7,7 14 7 18 10 W 998,6 43 0 0,0
23.01.2021 21:00:00 0,8 0,1 -1,6 6,1 7,7 16 8 21 11 W 997,8 33 0 0,0
23.01.2021 20:00:00 0,4 -0,2 -1,6 6,1 7,7 9 5 28 15 WNW 996,9 11 0 0,0
23.01.2021 19:00:00 1,9 1,3 0,7 6,1 7,7 21 11 33 18 WNW 996,2 20 0 0,0
23.01.2021 18:00:00 1,8 1,4 1,0 6,1 7,7 21 11 29 16 NW 995,9 42 0 0,0
23.01.2021 17:00:00 1,8 1,2 1,6 6,2 7,7 18 10 36 19 NNW 994,8 19 0 0,0
23.01.2021 16:00:00 1,8 1,2 2,1 6,2 7,7 22 12 36 19 N 993,5 18 0 0,0
23.01.2021 15:00:00 2,0 1,6 3,0 6,2 7,7 17 9 22 12 NNW 992,2 15 0 0,0
23.01.2021 14:00:00 2,6 2,3 3,3 6,2 7,7 12 7 17 9 NW 991,8 5 0 0,0
23.01.2021 13:00:00 2,6 2,5 2,1 6,3 7,7 5 3 15 8 NNE 992,1 6 0 0,6
23.01.2021 12:00:00 1,6 1,5 0,5 6,4 7,7 13 7 22 12 E 992,6 9 0 0,8
23.01.2021 11:00:00 1,2 0,8 0,7 6,4 7,7 18 10 37 20 ESE 993,1 7 0 2,6
23.01.2021 10:00:00 2,7 2,4 1,9 6,4 7,6 18 10 29 16 SE 993,8 8 0 0,0
23.01.2021 09:00:00 2,1 1,8 0,5 6,4 7,7 18 10 27 15 ESE 994,6 14 0 0,0
23.01.2021 08:00:00 1,9 1,3 1,1 6,5 7,6 13 7 20 11 ESE 995,4 20 0 0,0
23.01.2021 07:00:00 2,5 1,6 1,5 6,5 7,6 10 6 25 14 S 996,2 40 0 0,0
23.01.2021 06:00:00 2,7 1,8 1,1 6,5 7,6 17 9 27 15 SSW 997,1 48 0 0,0
23.01.2021 05:00:00 2,3 1,6 0,3 6,5 7,6 15 8 23 12 SSW 997,6 49 0 0,0
23.01.2021 04:00:00 2,1 1,1 0,4 6,6 7,7 14 8 22 12 SSW 998,0 60 0 0,0
23.01.2021 03:00:00 2,8 1,3 0,7 6,6 7,6 11 6 21 11 SSW 998,4 60 0 0,0
23.01.2021 02:00:00 3,5 1,7 1,2 6,6 7,6 13 7 33 18 SW 998,6 60 0 0,0
23.01.2021 01:00:00 4,5 2,5 2,5 6,6 7,6 21 11 39 21 WSW 998,7 60 0 0,0
23.01.2021 00:00:00 4,8 3,3 3,2 6,6 7,6 13 7 23 12 SSW 998,6 60 0 0,0
22.01.2021 23:00:00 4,8 3,5 2,6 6,6 7,6 14 8 29 16 SW 998,4 19 0 0,0
22.01.2021 22:00:00 4,4 2,3 2,4 6,6 7,6 9 5 18 10 SSW 998,7 50 0 0,0
22.01.2021 21:00:00 4,6 2,3 0,5 6,6 7,6 9 5 14 8 SSW 998,5 51 0 0,0
22.01.2021 20:00:00 4,2 2,2 -0,1 6,6 7,6 8 5 13 7 SSW 998,3 49 0 0,0
22.01.2021 19:00:00 4,1 2,1 0,3 6,5 7,6 9 5 16 9 SW 998,3 41 0 0,0
22.01.2021 18:00:00 5,4 2,9 2,5 6,5 7,6 10 5 16 8 SW 997,6 60 0 0,0
22.01.2021 17:00:00 6,7 3,1 5,3 6,5 7,6 13 7 24 13 W 997,1 60 0 0,0
22.01.2021 16:00:00 8,0 2,9 8,3 6,4 7,6 18 10 23 12 W 996,4 36 49 0,0
22.01.2021 15:00:00 7,5 3,4 8,1 6,4 7,6 12 6 21 12 WNW 996,0 49 6 0,0
22.01.2021 14:00:00 8,6 3,6 13,4 6,4 7,5 13 7 22 12 WSW 996,2 38 55 0,0
22.01.2021 13:00:00 8,4 4,2 15,9 6,5 7,5 10 5 18 10 WSW 996,4 20 60 0,0
22.01.2021 12:00:00 7,4 4,2 8,8 6,5 7,6 10 6 16 9 WSW 996,0 19 60 0,0
22.01.2021 11:00:00 5,2 4,0 6,4 6,5 7,6 13 7 17 9 W 995,7 19 46 0,0
22.01.2021 10:00:00 4,1 3,8 1,4 6,5 7,5 3 2 11 6 WNW 994,7 15 43 0,0
22.01.2021 09:00:00 3,3 2,9 0,3 6,5 7,6 5 3 11 6 W 994,1 15 0 0,0
22.01.2021 08:00:00 3,3 2,6 0,6 6,5 7,5 4 2 10 5 SSW 993,3 20 0 0,0
22.01.2021 07:00:00 3,9 3,2 2,6 6,5 7,5 6 3 12 6 WSW 992,3 40 0 0,0
22.01.2021 06:00:00 4,3 3,4 2,4 6,5 7,5 9 5 13 7 W 992,1 59 0 0,0
22.01.2021 05:00:00 4,4 3,2 2,9 6,5 7,5 3 1 15 8 SSW 991,9 60 0 0,0
22.01.2021 04:00:00 4,5 3,5 3,6 6,5 7,5 8 4 16 9 SW 991,9 60 0 0,0
22.01.2021 03:00:00 4,7 3,5 3,7 6,5 7,5 8 5 15 8 WSW 991,8 60 0 0,0
22.01.2021 02:00:00 4,7 3,7 3,9 6,4 7,5 12 6 17 9 SW 991,3 60 0 0,0
22.01.2021 01:00:00 4,7 3,7 4,1 6,4 7,5 13 7 39 21 WNW 990,9 60 0 0,0
22.01.2021 00:00:00 5,2 4,0 4,7 6,4 7,5 26 14 49 26 NW 989,2 60 0 1,4
21.01.2021 23:00:00 9,1 8,0 8,0 6,4 7,5 35 19 61 33 SW 985,8 7 0 0,4
21.01.2021 22:00:00 9,4 7,2 7,9 6,4 7,5 38 20 61 33 SSW 985,0 29 0 0,0
21.01.2021 21:00:00 9,6 6,3 7,6 6,3 7,5 36 19 64 34 SSW 985,3 53 0 0,0
21.01.2021 20:00:00 8,8 6,1 7,0 6,3 7,5 41 22 67 36 SSW 986,0 60 0 0,0
21.01.2021 19:00:00 8,1 6,4 7,1 6,3 7,5 35 19 63 34 SSW 986,0 13 0 1,0
21.01.2021 18:00:00 9,1 7,5 7,3 6,3 7,5 41 22 63 34 SSW 987,1 17 0 0,8
21.01.2021 17:00:00 7,8 7,0 6,8 6,3 7,5 31 17 46 25 SSE 988,1 8 0 1,4
21.01.2021 16:00:00 7,3 6,2 6,7 6,3 7,5 19 10 34 18 SSE 991,1 9 0 1,4
21.01.2021 15:00:00 7,6 5,4 6,7 6,2 7,5 23 12 38 21 S 993,0 14 0 0,0
21.01.2021 14:00:00 7,9 4,7 7,7 6,3 7,5 28 15 45 24 SSW 994,3 52 0 0,0
21.01.2021 13:00:00 7,7 4,5 8,0 6,2 7,5 27 15 50 27 SSW 995,4 20 0 0,0
21.01.2021 12:00:00 7,2 4,3 7,1 6,2 7,5 31 17 48 26 SSW 996,0 39 0 0,0
21.01.2021 11:00:00 6,4 3,7 5,4 6,2 7,5 27 15 42 23 SSW 996,3 49 5 0,0
21.01.2021 10:00:00 5,6 3,4 4,7 6,2 7,5 22 12 41 22 SW 996,2 53 26 0,0
21.01.2021 09:00:00 5,4 3,2 3,8 6,2 7,5 26 14 43 23 SW 995,8 59 0 0,0
21.01.2021 08:00:00 5,7 3,5 4,3 6,2 7,4 29 15 49 26 SW 995,2 60 0 0,0
21.01.2021 07:00:00 5,9 4,1 3,7 6,2 7,5 22 12 41 22 SW 994,4 60 0 0,0
21.01.2021 06:00:00 5,4 4,0 3,8 6,1 7,4 21 12 41 22 SW 993,4 60 0 0,0
21.01.2021 05:00:00 5,9 4,2 4,4 6,1 7,5 29 15 44 24 WSW 992,2 60 0 0,0
21.01.2021 04:00:00 6,0 5,1 3,1 6,1 7,4 29 16 82 45 WSW 990,8 16 0 4,5
21.01.2021 03:00:00 10,5 8,8 9,4 6,1 7,4 42 23 85 46 SW 988,9 2,7 0 0,2
21.01.2021 02:00:00 10,9 7,8 9,0 6,0 7,4 56 30 90 49 SSW 986,3 60 0 0,0
21.01.2021 01:00:00 11,4 6,5 9,7 6,0 7,4 50 27 84 46 SSW 986,6 60 0 0,0
21.01.2021 00:00:00 11,6 5,5 8,4 6,0 7,4 50 27 88 47 S 987,4 60 0 0,0
20.01.2021 23:00:00 11,2 5,3 9,3 6,0 7,4 44 24 72 39 S 988,6 43 0 0,0
20.01.2021 22:00:00 10,7 5,0 8,0 5,9 7,4 40 22 63 34 S 990,0 60 0 0,0
20.01.2021 21:00:00 10,3 4,6 8,8 5,9 7,4 31 17 59 32 S 991,1 60 0 0,0
20.01.2021 20:00:00 10,7 4,4 8,6 5,9 7,4 35 19 63 34 S 992,5 60 0 0,0
20.01.2021 19:00:00 9,8 4,6 7,9 5,9 7,4 26 14 56 30 S 993,6 59 0 0,0
20.01.2021 18:00:00 10,5 3,5 8,3 5,8 7,4 35 19 66 35 S 994,1 59 0 0,0
20.01.2021 17:00:00 10,6 3,1 9,5 5,8 7,4 25 13 44 24 S 994,5 60 0 0,0
20.01.2021 16:00:00 10,7 3,0 10,2 5,7 7,4 22 12 45 24 S 994,9 59 0 0,0
20.01.2021 15:00:00 10,6 2,9 10,4 5,7 7,4 23 12 47 26 S 995,8 50 0 0,0
20.01.2021 14:00:00 10,0 2,3 9,6 5,7 7,4 32 17 53 28 S 996,8 29 6 0,0
20.01.2021 13:00:00 9,2 2,3 8,2 5,7 7,4 26 14 41 22 S 997,9 54 0 0,0
20.01.2021 12:00:00 8,4 2,0 6,6 5,7 7,4 28 15 42 23 S 999,0 52 0 0,0
20.01.2021 11:00:00 7,5 3,0 5,8 5,7 7,4 24 13 42 23 S 1000,1 47 0 0,0
20.01.2021 10:00:00 7,2 3,2 5,8 5,7 7,4 21 12 36 19 S 1000,8 47 0 0,0
20.01.2021 09:00:00 7,3 2,6 5,9 5,6 7,4 18 10 29 16 S 1001,3 60 0 0,0
20.01.2021 08:00:00 6,8 2,9 5,1 5,6 7,4 13 7 29 16 S 1001,8 60 0 0,0
20.01.2021 07:00:00 6,4 3,4 4,9 5,6 7,4 13 7 29 16 S 1002,0 60 0 0,0
20.01.2021 06:00:00 6,4 4,1 5,2 5,6 7,4 15 8 29 16 S 1002,7 58 0 0,0
20.01.2021 05:00:00 6,5 4,7 5,6 5,6 7,4 18 10 37 20 S 1003,3 39 0 0,0
20.01.2021 04:00:00 6,8 4,8 5,7 5,6 7,4 24 13 41 22 SSW 1004,1 30 0 0,0
20.01.2021 03:00:00 7,0 4,6 5,7 5,5 7,4 21 12 35 19 SSW 1004,8 46 0 0,0
20.01.2021 02:00:00 6,8 4,5 5,8 5,5 7,4 21 12 42 23 S 1005,5 38 0 0,0
20.01.2021 01:00:00 6,3 4,3 5,1 5,5 7,4 20 11 34 19 SSW 1006,5 32 0 0,0
20.01.2021 00:00:00 6,2 4,2 5,5 5,4 7,4 22 12 44 24 SSW 1007,0 31 0 0,0
19.01.2021 23:00:00 6,5 4,2 5,5 5,4 7,4 32 17 48 26 SSW 1007,3 33 0 0,0
19.01.2021 22:00:00 6,4 4,1 5,8 5,4 7,4 25 14 41 22 SSW 1008,3 37 0 0,0
19.01.2021 21:00:00 6,4 4,1 5,9 5,4 7,4 26 14 44 24 SSW 1009,2 42 0 0,0
19.01.2021 20:00:00 6,5 4,7 6,2 5,3 7,4 24 13 42 23 SSW 1010,0 41 0 0,0
19.01.2021 19:00:00 6,5 4,7 6,1 5,3 7,4 18 10 34 18 SSW 1010,6 38 0 0,0
19.01.2021 18:00:00 6,9 4,9 6,4 5,2 7,4 24 13 43 23 SSW 1011,1 10 0 0,0
19.01.2021 17:00:00 6,8 4,8 6,5 5,2 7,4 27 15 45 25 SW 1011,7 55 0 0,0
19.01.2021 16:00:00 6,6 5,1 6,6 5,2 7,4 18 10 37 20 SSW 1011,8 52 0 0,0
19.01.2021 15:00:00 6,7 5,0 6,8 5,1 7,4 23 12 41 22 SSW 1012,3 54 0 0,0
19.01.2021 14:00:00 7,1 5,2 7,3 5,1 7,4 23 12 38 21 SW 1013,0 46 0 0,0
19.01.2021 13:00:00 6,9 5,5 7,1 5,1 7,4 26 14 49 26 SW 1013,7 43 1 0,0
19.01.2021 12:00:00 6,8 5,4 6,8 5,1 7,4 27 15 54 29 SW 1014,2 56 0 0,0
19.01.2021 11:00:00 6,7 5,2 6,0 5,1 7,4 31 17 48 26 SW 1014,5 59 0 0,0
19.01.2021 10:00:00 6,3 5,3 5,6 5,0 7,4 24 13 46 25 SW 1014,5 35 0 0,0
19.01.2021 09:00:00 6,1 5,2 5,1 5,1 7,5 28 15 43 23 SW 1014,5 18 0 0,0
19.01.2021 08:00:00 5,6 5,0 4,5 5,0 7,4 24 13 41 22 SW 1014,7 14 0 0,0
19.01.2021 07:00:00 5,0 4,3 4,1 5,0 7,4 22 12 44 24 SW 1015,2 20 0 0,6
19.01.2021 06:00:00 4,8 3,6 4,1 5,0 7,5 23 12 44 24 SSW 1015,8 18 0 0,0
19.01.2021 05:00:00 5,3 3,0 4,5 5,0 7,5 26 14 43 23 SSW 1016,5 19 0 0,0
19.01.2021 04:00:00 5,6 3,1 4,5 5,0 7,5 26 14 44 24 SSW 1017,3 58 0 0,0
19.01.2021 03:00:00 5,2 3,0 4,3 5,0 7,5 18 10 35 19 SSW 1018,5 48 0 0,0
19.01.2021 02:00:00 4,8 3,6 4,3 5,0 7,5 19 11 36 19 SSW 1019,3 19 0 0,0
19.01.2021 01:00:00 5,0 3,0 4,0 5,0 7,5 20 11 36 19 SSW 1020,2 38 0 0,0
19.01.2021 00:00:00 4,9 2,6 3,1 5,0 7,5 18 10 37 20 SSW 1021,2 38 0 0,0
18.01.2021 23:00:00 4,1 2,1 2,0 4,9 7,5 16 8 26 14 SW 1021,9 36 0 0,0
18.01.2021 22:00:00 3,7 1,7 0,8 4,9 7,5 14 8 22 12 SW 1022,7 39 0 0,0
18.01.2021 21:00:00 3,1 1,3 0,3 4,9 7,5 9 5 18 10 SW 1023,5 45 0 0,0
18.01.2021 20:00:00 3,8 1,5 1,8 4,9 7,5 13 7 27 15 SW 1023,9 51 0 0,0
18.01.2021 19:00:00 4,8 2,3 3,6 4,8 7,5 15 8 26 14 SSW 1024,1 50 0 0,0
18.01.2021 18:00:00 5,7 3,2 4,5 4,8 7,5 16 9 26 14 SW 1024,2 56 0 0,0
18.01.2021 17:00:00 6,7 3,3 6,1 4,9 7,5 15 8 29 16 SSW 1024,2 60 0 0,0
18.01.2021 16:00:00 7,3 3,2 7,5 4,8 7,6 17 9 32 18 SW 1024,7 60 3 0,0
18.01.2021 15:00:00 7,5 3,5 8,4 4,9 7,6 19 10 36 20 SW 1024,9 44 18 0,0
18.01.2021 14:00:00 6,5 3,6 8,1 4,9 7,5 20 11 34 18 WSW 1025,5 35 39 0,0
18.01.2021 13:00:00 5,2 3,2 8,3 4,9 7,5 23 12 33 18 WSW 1026,5 20 54 0,0
18.01.2021 12:00:00 4,4 3,1 5,1 4,9 7,5 17 9 27 15 WSW 1027,2 20 60 0,0
18.01.2021 11:00:00 2,4 2,4 2,1 5,0 7,6 9 5 12 6 SSE 1027,7 7 56 0,0
18.01.2021 10:00:00 0,7 0,7 -1,2 5,0 7,5 6 3 11 6 SE 1027,5 0,5 39 0,0
18.01.2021 09:00:00 0,6 0,5 -1,2 5,0 7,6 3 2 10 5 SSW 1027,6 1,6 0 0,0
18.01.2021 08:00:00 1,0 1,0 -1,8 5,0 7,6 8 4 14 8 WSW 1027,4 3,2 0 0,0
18.01.2021 07:00:00 0,3 0,3 -4,6 5,0 7,6 3 2 9 5 WSW 1027,2 5 0 0,0

tt = Température de l'air
td = dewpoint
tt 5cm = Température de l'air 5cm
tt -20cm = Température de l'air -20cm
tt -100cm = Température de l'air -100cm
ff = Vitesse du vent
fx = gusts
dd = Direction du vent
ppp = reduced air pressure
vv = visibility
sd = Ensoleillement
rr = Quantités de précipitations

stations d'obs. à proximité